Lexington, KY

2:55 PM EDT on July 25, 2016 (GMT -0400)
Blue Grass

Weather History for KLEX - September, 2013

Change the Weather History Date:

Saturday, September 7, 2013

  Actual Average Record
Temperature  
Mean Temperature 72 °F 72 °F  
Max Temperature 85 °F 82 °F 97 °F (1939)
Min Temperature 59 °F 61 °F 48 °F (1962)
Degree Days  
Heating Degree Days 0 0  
Month to date heating degree days 0 0  
Since 1 July heating degree days 3 2  
Cooling Degree Days 7 7  
Month to date cooling degree days 52 53  
Year to date cooling degree days 1090 1070  
Growing Degree Days 22 (Base 50)    
Moisture  
Dew Point 62 °F    
Average Humidity 71    
Maximum Humidity 90    
Minimum Humidity 51    
Precipitation  
Precipitation 0.00 in 0.09 in 1.28 in (1917)
Month to date precipitation T 0.64  
Year to date precipitation 43.64 32.31  
Snow  
Snow 0.00 in 0.00 in - ()
Month to date snowfall 0.0 0.0  
Since 1 July snowfall 0.0 0.0  
Since 1 September snowfall 0.0 0.0  
Snow Depth 0.00 in    
Sea Level Pressure  
Sea Level Pressure 30.05 in    
Wind  
Wind Speed 5 mph (SSW)    
Max Wind Speed 10 mph    
Max Gust Speed 13 mph    
Visibility 10 miles    
Events      
T = Trace of Precipitation, MM = Missing Value Source: NWS Daily Summary

Daily Weather History Graph

Daily Weather History Graph

Search for Another Location

Airport or City:

Trip Planner

Search our weather history database for the weather conditions in past years. The results will help you decide how hot, cold, wet, or windy it might be!

Date:

Astronomy

Sep. 07, 2013 Rise Set
Actual Time 7:13 AM EDT 7:58 PM EDT
Civil Twilight 6:46 AM EDT 8:25 PM EDT
Nautical Twilight 6:15 AM EDT 8:56 PM EDT
Astronomical Twilight 5:42 AM EDT 9:28 PM EDT
Moon 9:23 AM EDT (9/7) 8:59 PM EDT (9/7)
Length of Visible Light 13h 38m
Length of Day
12h 44m
Waxing Crescent, 5% of the Moon is Illuminated
Sep 7
Waxing Crescent
Sep 12
First Quarter
Sep 19
Full
Sep 26
Last Quarter
Oct 4
New

Hourly Weather History & Observations

Time (EDT) Temp. Heat Index Dew Point Humidity Pressure Visibility Wind Dir Wind Speed Gust Speed Precip Events Conditions
12:54 AM 66.0 °F - 55.0 °F 68% 30.10 in 10.0 mi SE 6.9 mph - N/A   Clear
1:54 AM 66.0 °F - 54.0 °F 65% 30.10 in 10.0 mi SE 4.6 mph - N/A   Clear
2:54 AM 64.9 °F - 55.0 °F 70% 30.09 in 10.0 mi SE 6.9 mph - N/A   Clear
3:54 AM 63.0 °F - 55.9 °F 78% 30.09 in 10.0 mi Calm Calm - N/A   Clear
4:54 AM 63.0 °F - 55.9 °F 78% 30.08 in 10.0 mi SSE 3.5 mph - N/A   Clear
5:54 AM 62.1 °F - 57.0 °F 84% 30.09 in 10.0 mi Calm Calm - N/A   Clear
6:54 AM 60.1 °F - 55.9 °F 86% 30.09 in 10.0 mi SSE 3.5 mph - N/A   Clear
7:54 AM 61.0 °F - 57.0 °F 87% 30.10 in 10.0 mi SSE 6.9 mph - N/A   Clear
8:54 AM 66.0 °F - 60.1 °F 81% 30.10 in 10.0 mi South 4.6 mph - N/A   Clear
9:54 AM 73.0 °F - 63.0 °F 71% 30.10 in 10.0 mi SW 5.8 mph - N/A   Clear
10:54 AM 77.0 °F - 64.0 °F 64% 30.10 in 10.0 mi Variable 3.5 mph - N/A   Clear
11:54 AM 81.0 °F 82.7 °F 64.9 °F 58% 30.10 in 10.0 mi WNW 5.8 mph - N/A   Clear
12:54 PM 82.0 °F 83.8 °F 64.9 °F 56% 30.07 in 10.0 mi Variable 3.5 mph - N/A   Scattered Clouds
1:54 PM 82.0 °F 83.4 °F 64.0 °F 54% 30.06 in 10.0 mi SW 5.8 mph - N/A   Mostly Cloudy
2:54 PM 84.9 °F 86.6 °F 64.9 °F 51% 30.04 in 10.0 mi WSW 4.6 mph - N/A   Scattered Clouds
3:54 PM 84.9 °F 86.6 °F 64.9 °F 51% 30.01 in 10.0 mi SSW 6.9 mph - N/A   Scattered Clouds
4:54 PM 84.0 °F 85.8 °F 64.9 °F 53% 29.99 in 10.0 mi SW 8.1 mph - N/A   Clear
5:54 PM 84.0 °F 86.5 °F 66.9 °F 56% 29.99 in 10.0 mi West 5.8 mph - N/A   Clear
6:54 PM 81.0 °F 83.0 °F 66.0 °F 60% 29.99 in 10.0 mi SW 4.6 mph - N/A   Clear
7:54 PM 79.0 °F - 66.0 °F 64% 30.00 in 10.0 mi Calm Calm - N/A   Clear
8:54 PM 73.9 °F - 66.0 °F 76% 30.00 in 10.0 mi South 4.6 mph - N/A   Clear
9:54 PM 72.0 °F - 66.0 °F 81% 30.00 in 10.0 mi South 3.5 mph - N/A   Partly Cloudy
10:54 PM 71.1 °F - 64.9 °F 81% 29.99 in 10.0 mi SSW 5.8 mph - N/A   Clear
11:54 PM 70.0 °F - 64.9 °F 84% 29.99 in 10.0 mi South 5.8 mph - N/A   Clear